TimeCST,TemperatureF,Dew PointF,Humidity,Sea Level PressureIn,VisibilityMPH,Wind Direction,Wind SpeedMPH,Gust SpeedMPH,PrecipitationIn,Events,Conditions,WindDirDegrees,DateUTC
12:56 AM,-8.9,-9999,N/A,30.41,10.0,NNE,5.8,-,N/A,,Clear,20,2014-01-01 06:56:00
1:56 AM,-6.0,-9999,N/A,30.41,10.0,NE,3.5,-,N/A,,Overcast,40,2014-01-01 07:56:00
2:56 AM,-4.9,-9999,N/A,30.43,10.0,NNE,5.8,-,N/A,,Overcast,30,2014-01-01 08:56:00
3:56 AM,-4.9,-9999,N/A,30.44,10.0,NE,4.6,-,N/A,,Overcast,40,2014-01-01 09:56:00
4:56 AM,-4.9,-9999,N/A,30.43,10.0,ENE,6.9,-,N/A,,Overcast,60,2014-01-01 10:56:00
5:56 AM,-4.0,-9999,N/A,30.43,10.0,NE,4.6,-,N/A,,Overcast,40,2014-01-01 11:56:00
6:56 AM,-2.9,-9999,N/A,30.44,10.0,NE,10.4,-,N/A,,Overcast,40,2014-01-01 12:56:00
7:56 AM,-1.8,-9999,N/A,30.46,10.0,NNE,6.9,-,N/A,,Overcast,30,2014-01-01 13:56:00
8:56 AM,-0.9,-9999,N/A,30.48,10.0,NE,8.1,-,N/A,,Overcast,50,2014-01-01 14:56:00
9:56 AM,1.0,-9999,N/A,30.48,10.0,NE,6.9,-,N/A,,Overcast,40,2014-01-01 15:56:00
10:56 AM,3.0,-9999,N/A,30.47,10.0,NE,9.2,-,N/A,,Overcast,40,2014-01-01 16:56:00
11:56 AM,3.2,-9999,N/A,30.38,10.0,NNE,10.4,-,N/A,,Overcast,30,2014-01-01 17:56:00
12:56 PM,5.0,-9999,N/A,30.42,10.0,NNE,9.2,-,N/A,,Overcast,30,2014-01-01 18:56:00
1:17 PM,6.8,-9999,N/A,30.35,10.0,North,6.9,-,N/A,,Overcast,10,2014-01-01 19:17:00
1:56 PM,6.1,-9999,N/A,30.40,10.0,NE,8.1,-,N/A,,Overcast,40,2014-01-01 19:56:00
2:44 PM,6.8,-9999,N/A,30.34,10.0,NNE,10.4,-,N/A,,Overcast,30,2014-01-01 20:44:00
2:56 PM,6.8,-9999,N/A,30.33,10.0,NNE,8.1,-,N/A,,Overcast,20,2014-01-01 20:56:00
3:49 PM,5.0,-9999,N/A,30.35,10.0,NE,5.8,-,N/A,,Scattered Clouds,40,2014-01-01 21:49:00
3:56 PM,5.0,-9999,N/A,30.41,10.0,NNE,6.9,-,N/A,,Partly Cloudy,30,2014-01-01 21:56:00
4:56 PM,4.1,-9999,N/A,30.42,10.0,NE,4.6,-,N/A,,Mostly Cloudy,40,2014-01-01 22:56:00
5:56 PM,3.2,-9999,N/A,30.36,10.0,NNE,4.6,-,N/A,,Overcast,30,2014-01-01 23:56:00
6:56 PM,4.1,-9999,N/A,30.43,10.0,North,3.5,-,N/A,,Overcast,360,2014-01-02 00:56:00
7:56 PM,5.0,-9999,N/A,30.42,10.0,NNE,3.5,-,N/A,,Overcast,20,2014-01-02 01:56:00
8:56 PM,6.8,-9999,N/A,30.34,10.0,NNE,3.5,-,N/A,,Overcast,20,2014-01-02 02:56:00
9:26 PM,6.8,-9999,N/A,30.34,10.0,NNE,6.9,-,N/A,,Overcast,20,2014-01-02 03:26:00
9:56 PM,7.2,-9999,N/A,30.40,10.0,North,5.8,-,N/A,,Overcast,10,2014-01-02 03:56:00
10:56 PM,7.2,-9999,N/A,30.40,10.0,NNE,8.1,-,N/A,,Overcast,30,2014-01-02 04:56:00
11:56 PM,6.8,-9999,N/A,30.32,10.0,NNE,8.1,-,N/A,,Overcast,20,2014-01-02 05:56:00